Change the Weather History Date:

Monday, April 7, 2014

  Actual Average Record
Temperature  
Mean Temperature 44 °F -  
Max Temperature 51 °F 53 °F 77 °F (1991)
Min Temperature 37 °F 34 °F 22 °F (1950)
Degree Days  
Heating Degree Days 22    
Moisture  
Dew Point 36 °F    
Average Humidity 78    
Maximum Humidity 100    
Minimum Humidity 26    
Precipitation  
Precipitation 0.30 in - - ()
Sea Level Pressure  
Sea Level Pressure 30.03 in    
Wind  
Wind Speed 5 mph (East)    
Max Wind Speed 14 mph    
Max Gust Speed 21 mph    
Visibility 5 miles    
Events Rain    
Averages and records for this station are not official NWS values.
T = Trace of Precipitation, MM = Missing Value Source: NWS Daily Summary

Daily Weather History Graph

Daily Weather History Graph

Search for Another Location

Airport or City:

Trip Planner

Search our weather history database for the weather conditions in past years. The results will help you decide how hot, cold, wet, or windy it might be!

Date:

Astronomy

Apr. 07, 2014 Rise Set
Actual Time 6:30 AM EDT 7:28 PM EDT
Civil Twilight 6:02 AM EDT 7:56 PM EDT
Nautical Twilight 5:29 AM EDT 8:29 PM EDT
Astronomical Twilight 4:55 AM EDT 9:04 PM EDT
Moon 12:23 PM EDT (4/7) 2:05 AM EDT (4/7)
Length of Visible Light 13h 53m
Length of Day
12h 57m
First Quarter, 53% of the Moon is Illuminated
Apr 7
First Quarter
Apr 15
Full
Apr 22
Last Quarter
Apr 29
New
May 6
First Quarter

Hourly Weather History & Observations

Time (EDT) Temp. Windchill Dew Point Humidity Pressure Visibility Wind Dir Wind Speed Gust Speed Precip Events Conditions
12:53 AM 41.0 °F - 30.9 °F 67% 30.23 in 10.0 mi Calm Calm - N/A   Clear
1:53 AM 39.9 °F - 30.0 °F 68% 30.21 in 10.0 mi Calm Calm - N/A   Clear
2:53 AM 39.0 °F - 30.9 °F 73% 30.20 in 10.0 mi Calm Calm - N/A   Clear
3:53 AM 37.9 °F - 30.9 °F 76% 30.20 in 10.0 mi Calm Calm - N/A   Clear
4:53 AM 37.9 °F - 32.0 °F 79% 30.19 in 10.0 mi Calm Calm - N/A   Clear
5:53 AM 37.0 °F - 30.9 °F 79% 30.19 in 10.0 mi Calm Calm - N/A   Clear
6:53 AM 37.0 °F - 30.9 °F 79% 30.20 in 10.0 mi Calm Calm - N/A   Clear
8:53 AM 43.0 °F 40.3 °F 32.0 °F 65% 30.22 in 9.0 mi East 4.6 mph - N/A   Clear
9:53 AM 46.0 °F 41.9 °F 30.9 °F 56% 30.24 in 4.0 mi South 8.1 mph - N/A   Haze
10:08 AM 46.4 °F 42.9 °F 30.2 °F 53% 30.22 in 2.5 mi SSW 6.9 mph - N/A   Haze
10:16 AM 46.4 °F 42.9 °F 30.2 °F 53% 30.21 in 3.0 mi SSE 6.9 mph - N/A   Haze
10:53 AM 46.0 °F - 30.9 °F 56% 30.22 in 2.5 mi Calm Calm - N/A   Haze
11:00 AM 46.4 °F 45.2 °F 30.2 °F 53% 30.20 in 3.0 mi ESE 3.5 mph - N/A   Haze
11:53 AM 48.0 °F - 25.0 °F 41% 30.19 in 10.0 mi SSE 11.5 mph - N/A   Partly Cloudy
12:53 PM 50.0 °F - 16.0 °F 26% 30.16 in 10.0 mi SSE 9.2 mph - N/A   Clear
1:53 PM 50.0 °F - 27.0 °F 41% 30.12 in 10.0 mi South 13.8 mph 19.6 mph N/A   Mostly Cloudy
2:53 PM 50.0 °F - 36.0 °F 59% 30.08 in 10.0 mi SSE 11.5 mph 18.4 mph N/A   Overcast
3:38 PM 48.2 °F - 35.6 °F 62% 29.99 in 10.0 mi SE 10.4 mph 20.7 mph N/A   Overcast
4:53 PM 46.9 °F - 37.9 °F 71% 30.00 in 4.0 mi East 10.4 mph - 0.00 in Rain Light Rain
5:08 PM 46.4 °F 42.9 °F 39.2 °F 76% 29.99 in 1.8 mi East 6.9 mph - 0.02 in Rain Rain
5:39 PM 44.6 °F 40.7 °F 41.0 °F 87% 29.99 in 2.0 mi ENE 6.9 mph - 0.07 in Rain Light Rain
5:49 PM 42.8 °F 38.0 °F 41.0 °F 93% 29.98 in 1.5 mi ENE 8.1 mph - 0.08 in Rain Rain
5:53 PM 43.0 °F 36.8 °F 41.0 °F 93% 29.99 in 1.2 mi ENE 11.5 mph - 0.09 in Rain Light Rain
6:17 PM 42.8 °F 36.6 °F 41.0 °F 93% 29.95 in 1.5 mi ENE 11.5 mph - 0.03 in Rain Light Rain
6:28 PM 42.8 °F 37.0 °F 41.0 °F 93% 29.95 in 2.0 mi East 10.4 mph - 0.05 in Rain Rain
6:35 PM 42.8 °F 37.0 °F 42.8 °F 100% 29.95 in 2.0 mi ENE 10.4 mph - 0.06 in Rain Light Rain
6:48 PM 42.8 °F 37.0 °F 42.8 °F 100% 29.94 in 4.0 mi East 10.4 mph - 0.06 in Rain Light Rain
6:53 PM 43.0 °F 37.2 °F 42.1 °F 97% 29.96 in 4.0 mi East 10.4 mph - 0.06 in Rain Light Rain
7:18 PM 42.8 °F 36.6 °F 42.8 °F 100% 29.92 in 2.5 mi East 11.5 mph - 0.02 in Rain Light Rain
7:27 PM 42.8 °F 36.6 °F 42.8 °F 100% 29.90 in 4.0 mi East 11.5 mph - 0.02 in Rain Light Rain
7:53 PM 43.0 °F 37.2 °F 43.0 °F 100% 29.89 in 3.0 mi ENE 10.4 mph - 0.03 in Rain Light Rain
8:01 PM 44.6 °F 39.7 °F 42.8 °F 93% 29.87 in 2.5 mi ENE 9.2 mph - 0.01 in Rain Light Rain
8:53 PM 44.1 °F 39.0 °F 43.0 °F 96% 29.86 in 2.0 mi ENE 9.2 mph 16.1 mph 0.06 in Rain Light Rain
9:53 PM 44.1 °F 39.0 °F 44.1 °F 100% 29.83 in 2.5 mi ENE 9.2 mph 20.7 mph 0.05 in Rain Light Rain
10:30 PM 44.6 °F 40.2 °F 44.6 °F 100% 29.76 in 3.0 mi East 8.1 mph - 0.01 in Rain Light Rain
10:53 PM 44.1 °F 40.1 °F 44.1 °F 100% 29.78 in 3.0 mi ENE 6.9 mph - 0.01 in Rain Light Rain
11:22 PM 44.6 °F - 44.6 °F 100% 29.75 in 2.5 mi Calm Calm - 0.00 in   Overcast
11:53 PM 44.1 °F 40.1 °F 44.1 °F 100% 29.75 in 2.0 mi East 6.9 mph - 0.00 in   Overcast